Thunderstorms From: 25-05-2018 05:05 Until: 26-05-2018 05:00 warning for: Thunderstorms Level: Yellow info button

Although rather usual in this region, locally or potentially dangerous phenomena are expected. (such as local winds, summer thunderstorms, rising streams or high waves) Be aware and pay attention to the latest weather updates, especially if you carry out activities exposed to weather or close to a stream or shoreline. 


Meteo18 Weather Cam more information Meteo18 Weather Cam


warning for Thunderstorms more information blitzortung!


Rain radar more information rain snow radar


Visit our other weather sites:

Template documentation
and downloads

And another site



Weather Underground History page Text

Daily Summary for August 14, 2017 Units:  Both    English   Metric
« Previous Day
Next Day »
Daily Weekly Monthly Yearly Custom
  High: Low: Average:
Temperature: TemperatureC °F /  -17.8 °C 12.4 °F /  -10.9 °C 20.8 °F /  -6.2 °C
Dew Point: DewpointC °F /  -17.8 °C 11.5 °F /  -11.4 °C 14.7 °F /  -9.6 °C
Humidity: Humidity % 41 % 71 %
Wind Speed: WindSpeedKMH mph /  0 km/h - 1.9 mph /  3.1 km/h
Wind Gust: WindSpeedGustKMH mph /  0 km/h - -
Wind:- - SSE
Pressure: PressurehPa in /  0 hPa 1015.5 in /  34384.8 hPa -
Precipitation: 0.0 in /  0 mm    
Historical Graphs
 
 
Tabular Data for August 14, 2017
Time Temperature Dew Point Pressure Wind Wind Speed Wind Gust Humidity Rainfall Rate (Hourly)
TemperatureC °F /  -17.8 °C DewpointC °F /  -17.8 °C PressurehPa in /  0 hPa Calm     Humidity % HourlyPrecipMM in /  0 mm
00:02 15.5 °F /  -9.2 °C 13.2 °F /  -10.4 °C 1021.6 in /  34591.4 hPa Calm   1.6 mph /  2.6 km/h 86 % 0.0 in /  0 mm
00:07 15.4 °F /  -9.2 °C 13.1 °F /  -10.5 °C 1021.2 in /  34577.8 hPa Calm   1.6 mph /  2.6 km/h 86 % 0.0 in /  0 mm
00:12 15.3 °F /  -9.3 °C 13.0 °F /  -10.6 °C 1021.2 in /  34577.8 hPa Calm   1.6 mph /  2.6 km/h 86 % 0.0 in /  0 mm
00:17 15.2 °F /  -9.3 °C 12.9 °F /  -10.6 °C 1021.2 in /  34577.8 hPa Calm   1.6 mph /  2.6 km/h 86 % 0.0 in /  0 mm
00:22 15.2 °F /  -9.3 °C 12.9 °F /  -10.6 °C 1021.2 in /  34577.8 hPa Calm   1.6 mph /  2.6 km/h 86 % 0.0 in /  0 mm
00:32 15.1 °F /  -9.4 °C 13.0 °F /  -10.6 °C 1021.2 in /  34577.8 hPa Calm   1.6 mph /  2.6 km/h 87 % 0.0 in /  0 mm
00:42 15.0 °F /  -9.4 °C 12.9 °F /  -10.6 °C 1021.2 in /  34577.8 hPa Calm   1.6 mph /  2.6 km/h 87 % 0.0 in /  0 mm
00:47 14.9 °F /  -9.5 °C 12.8 °F /  -10.7 °C 1021.2 in /  34577.8 hPa Calm   1.6 mph /  2.6 km/h 87 % 0.0 in /  0 mm
00:57 14.7 °F /  -9.6 °C 12.7 °F /  -10.7 °C 1021.2 in /  34577.8 hPa Calm   3.2 mph /  5.1 km/h 88 % 0.0 in /  0 mm
01:02 14.8 °F /  -9.6 °C 12.8 °F /  -10.7 °C 1020.9 in /  34567.7 hPa Calm   3.2 mph /  5.1 km/h 88 % 0.0 in /  0 mm
01:07 14.8 °F /  -9.6 °C 12.8 °F /  -10.7 °C 1020.9 in /  34567.7 hPa Calm   3.2 mph /  5.1 km/h 88 % 0.0 in /  0 mm
01:12 14.7 °F /  -9.6 °C 12.7 °F /  -10.7 °C 1020.9 in /  34567.7 hPa Calm   3.2 mph /  5.1 km/h 88 % 0.0 in /  0 mm
01:17 14.6 °F /  -9.7 °C 12.6 °F /  -10.8 °C 1020.9 in /  34567.7 hPa Calm   3.2 mph /  5.1 km/h 88 % 0.0 in /  0 mm
01:22 14.5 °F /  -9.7 °C 12.5 °F /  -10.8 °C 1021.2 in /  34577.8 hPa Calm   3.2 mph /  5.1 km/h 88 % 0.0 in /  0 mm
01:32 14.4 °F /  -9.8 °C 12.6 °F /  -10.8 °C 1020.9 in /  34567.7 hPa Calm   3.2 mph /  5.1 km/h 89 % 0.0 in /  0 mm
01:37 14.4 °F /  -9.8 °C 12.6 °F /  -10.8 °C 1020.9 in /  34567.7 hPa Calm   3.2 mph /  5.1 km/h 89 % 0.0 in /  0 mm
01:42 14.4 °F /  -9.8 °C 12.6 °F /  -10.8 °C 1020.9 in /  34567.7 hPa Calm   3.2 mph /  5.1 km/h 89 % 0.0 in /  0 mm
01:47 14.4 °F /  -9.8 °C 12.6 °F /  -10.8 °C 1020.9 in /  34567.7 hPa Calm   3.2 mph /  5.1 km/h 89 % 0.0 in /  0 mm
01:52 14.4 °F /  -9.8 °C 12.6 °F /  -10.8 °C 1020.9 in /  34567.7 hPa Calm     89 % 0.0 in /  0 mm
01:57 14.4 °F /  -9.8 °C 12.4 °F /  -10.9 °C 1020.9 in /  34567.7 hPa NNE 1.6 mph /  2.6 km/h 1.6 mph /  2.6 km/h 88 % 0.0 in /  0 mm
02:02 14.3 °F /  -9.8 °C 12.3 °F /  -10.9 °C 1020.5 in /  34554.1 hPa Calm   3.2 mph /  5.1 km/h 88 % 0.0 in /  0 mm
02:07 14.2 °F /  -9.9 °C 12.4 °F /  -10.9 °C 1020.5 in /  34554.1 hPa North 1.6 mph /  2.6 km/h 3.2 mph /  5.1 km/h 89 % 0.0 in /  0 mm
02:12 14.2 °F /  -9.9 °C 12.4 °F /  -10.9 °C 1020.5 in /  34554.1 hPa Calm   3.2 mph /  5.1 km/h 89 % 0.0 in /  0 mm
02:17 14.2 °F /  -9.9 °C 12.4 °F /  -10.9 °C 1020.5 in /  34554.1 hPa Calm   1.6 mph /  2.6 km/h 89 % 0.0 in /  0 mm
02:22 14.2 °F /  -9.9 °C 12.4 °F /  -10.9 °C 1020.5 in /  34554.1 hPa Calm   1.6 mph /  2.6 km/h 89 % 0.0 in /  0 mm
02:27 14.2 °F /  -9.9 °C 12.4 °F /  -10.9 °C 1020.5 in /  34554.1 hPa Calm   1.6 mph /  2.6 km/h 89 % 0.0 in /  0 mm
02:32 14.1 °F /  -9.9 °C 12.3 °F /  -10.9 °C 1020.5 in /  34554.1 hPa Calm   1.6 mph /  2.6 km/h 89 % 0.0 in /  0 mm
02:37 14.1 °F /  -9.9 °C 12.3 °F /  -10.9 °C 1020.5 in /  34554.1 hPa Calm   1.6 mph /  2.6 km/h 89 % 0.0 in /  0 mm
02:42 14.1 °F /  -9.9 °C 12.3 °F /  -10.9 °C 1020.5 in /  34554.1 hPa Calm   1.6 mph /  2.6 km/h 89 % 0.0 in /  0 mm
02:47 14.1 °F /  -9.9 °C 12.3 °F /  -10.9 °C 1020.5 in /  34554.1 hPa Calm   1.6 mph /  2.6 km/h 89 % 0.0 in /  0 mm
02:57 13.9 °F /  -10.1 °C 12.3 °F /  -10.9 °C 1020.5 in /  34554.1 hPa Calm   1.6 mph /  2.6 km/h 90 % 0.0 in /  0 mm
03:02 13.9 °F /  -10.1 °C 12.3 °F /  -10.9 °C 1020.2 in /  34544 hPa Calm   1.6 mph /  2.6 km/h 90 % 0.0 in /  0 mm
03:07 13.9 °F /  -10.1 °C 12.3 °F /  -10.9 °C 1020.2 in /  34544 hPa Calm   1.6 mph /  2.6 km/h 90 % 0.0 in /  0 mm
03:12 13.8 °F /  -10.1 °C 12.2 °F /  -11 °C 1020.2 in /  34544 hPa Calm   1.6 mph /  2.6 km/h 90 % 0.0 in /  0 mm
03:17 13.8 °F /  -10.1 °C 12.2 °F /  -11 °C 1020.2 in /  34544 hPa Calm     90 % 0.0 in /  0 mm
03:22 13.8 °F /  -10.1 °C 12.2 °F /  -11 °C 1020.2 in /  34544 hPa Calm     90 % 0.0 in /  0 mm
03:27 13.8 °F /  -10.1 °C 12.2 °F /  -11 °C 1020.2 in /  34544 hPa Calm     90 % 0.0 in /  0 mm
03:32 13.9 °F /  -10.1 °C 12.3 °F /  -10.9 °C 1020.2 in /  34544 hPa Calm     90 % 0.0 in /  0 mm
03:37 13.9 °F /  -10.1 °C 12.3 °F /  -10.9 °C 1020.2 in /  34544 hPa Calm     90 % 0.0 in /  0 mm
03:42 13.9 °F /  -10.1 °C 12.3 °F /  -10.9 °C 1020.2 in /  34544 hPa Calm     90 % 0.0 in /  0 mm
03:52 14.0 °F /  -10 °C 12.4 °F /  -10.9 °C 1020.2 in /  34544 hPa Calm     90 % 0.0 in /  0 mm
03:57 14.0 °F /  -10 °C 12.4 °F /  -10.9 °C 1020.2 in /  34544 hPa Calm     90 % 0.0 in /  0 mm
04:02 14.0 °F /  -10 °C 12.4 °F /  -10.9 °C 1020.2 in /  34544 hPa Calm     90 % 0.0 in /  0 mm
04:07 13.8 °F /  -10.1 °C 12.2 °F /  -11 °C 1020.2 in /  34544 hPa Calm     90 % 0.0 in /  0 mm
04:12 13.8 °F /  -10.1 °C 12.4 °F /  -10.9 °C 1020.2 in /  34544 hPa Calm     91 % 0.0 in /  0 mm
04:17 13.8 °F /  -10.1 °C 12.4 °F /  -10.9 °C 1020.2 in /  34544 hPa Calm     91 % 0.0 in /  0 mm
04:22 13.7 °F /  -10.2 °C 12.3 °F /  -10.9 °C 1020.2 in /  34544 hPa Calm     91 % 0.0 in /  0 mm
04:27 13.6 °F /  -10.2 °C 12.2 °F /  -11 °C 1019.9 in /  34533.8 hPa Calm     91 % 0.0 in /  0 mm
04:32 13.6 °F /  -10.2 °C 12.2 °F /  -11 °C 1020.2 in /  34544 hPa Calm     91 % 0.0 in /  0 mm
04:37 13.6 °F /  -10.2 °C 12.3 °F /  -10.9 °C 1019.9 in /  34533.8 hPa Calm     92 % 0.0 in /  0 mm
04:42 13.8 °F /  -10.1 °C 12.5 °F /  -10.8 °C 1019.9 in /  34533.8 hPa Calm     92 % 0.0 in /  0 mm
04:47 13.8 °F /  -10.1 °C 12.4 °F /  -10.9 °C 1019.9 in /  34533.8 hPa Calm     91 % 0.0 in /  0 mm
04:52 13.7 °F /  -10.2 °C 12.3 °F /  -10.9 °C 1019.9 in /  34533.8 hPa Calm     91 % 0.0 in /  0 mm
04:57 13.7 °F /  -10.2 °C 12.4 °F /  -10.9 °C 1019.9 in /  34533.8 hPa Calm     92 % 0.0 in /  0 mm
05:02 13.6 °F /  -10.2 °C 12.3 °F /  -10.9 °C 1019.9 in /  34533.8 hPa Calm     92 % 0.0 in /  0 mm
05:12 13.1 °F /  -10.5 °C 11.7 °F /  -11.3 °C 1019.9 in /  34533.8 hPa Calm     91 % 0.0 in /  0 mm
05:17 12.9 °F /  -10.6 °C 11.6 °F /  -11.3 °C 1019.9 in /  34533.8 hPa Calm     92 % 0.0 in /  0 mm
05:22 12.9 °F /  -10.6 °C 11.8 °F /  -11.2 °C 1019.9 in /  34533.8 hPa Calm     93 % 0.0 in /  0 mm
05:27 13.0 °F /  -10.6 °C 11.9 °F /  -11.2 °C 1019.9 in /  34533.8 hPa Calm     93 % 0.0 in /  0 mm
05:32 12.9 °F /  -10.6 °C 12.0 °F /  -11.1 °C 1019.9 in /  34533.8 hPa Calm     94 % 0.0 in /  0 mm
05:42 13.0 °F /  -10.6 °C 12.1 °F /  -11.1 °C 1019.9 in /  34533.8 hPa Calm     94 % 0.0 in /  0 mm
05:47 12.9 °F /  -10.6 °C 11.8 °F /  -11.2 °C 1019.9 in /  34533.8 hPa Calm     93 % 0.0 in /  0 mm
05:52 12.9 °F /  -10.6 °C 12.0 °F /  -11.1 °C 1019.9 in /  34533.8 hPa Calm     94 % 0.0 in /  0 mm
05:57 12.8 °F /  -10.7 °C 11.9 °F /  -11.2 °C 1019.9 in /  34533.8 hPa Calm     94 % 0.0 in /  0 mm
06:02 12.7 °F /  -10.7 °C 11.8 °F /  -11.2 °C 1019.9 in /  34533.8 hPa Calm     94 % 0.0 in /  0 mm
06:12 12.5 °F /  -10.8 °C 11.6 °F /  -11.3 °C 1019.9 in /  34533.8 hPa Calm     94 % 0.0 in /  0 mm
06:17 12.4 °F /  -10.9 °C 11.5 °F /  -11.4 °C 1019.9 in /  34533.8 hPa Calm     94 % 0.0 in /  0 mm
06:22 12.5 °F /  -10.8 °C 11.7 °F /  -11.3 °C 1019.9 in /  34533.8 hPa Calm     95 % 0.0 in /  0 mm
06:32 12.6 °F /  -10.8 °C 11.8 °F /  -11.2 °C 1019.9 in /  34533.8 hPa North 1.6 mph /  2.6 km/h 3.2 mph /  5.1 km/h 95 % 0.0 in /  0 mm
06:37 12.4 °F /  -10.9 °C 11.5 °F /  -11.4 °C 1019.9 in /  34533.8 hPa North 3.2 mph /  5.1 km/h 3.2 mph /  5.1 km/h 94 % 0.0 in /  0 mm
06:42 12.4 °F /  -10.9 °C 11.6 °F /  -11.3 °C 1019.9 in /  34533.8 hPa North 3.2 mph /  5.1 km/h 3.2 mph /  5.1 km/h 95 % 0.0 in /  0 mm
06:47 12.5 °F /  -10.8 °C 11.7 °F /  -11.3 °C 1019.9 in /  34533.8 hPa North 1.6 mph /  2.6 km/h 3.2 mph /  5.1 km/h 95 % 0.0 in /  0 mm
06:52 12.5 °F /  -10.8 °C 11.7 °F /  -11.3 °C 1019.5 in /  34520.3 hPa North 1.6 mph /  2.6 km/h 4.8 mph /  7.7 km/h 95 % 0.0 in /  0 mm
06:57 12.4 °F /  -10.9 °C 11.5 °F /  -11.4 °C 1019.5 in /  34520.3 hPa NNE 1.6 mph /  2.6 km/h 4.8 mph /  7.7 km/h 94 % 0.0 in /  0 mm
07:02 12.4 °F /  -10.9 °C 11.6 °F /  -11.3 °C 1019.5 in /  34520.3 hPa North 3.2 mph /  5.1 km/h 3.2 mph /  5.1 km/h 95 % 0.0 in /  0 mm
07:07 12.6 °F /  -10.8 °C 11.7 °F /  -11.3 °C 1019.5 in /  34520.3 hPa North 1.6 mph /  2.6 km/h 3.2 mph /  5.1 km/h 94 % 0.0 in /  0 mm
07:12 12.7 °F /  -10.7 °C 11.8 °F /  -11.2 °C 1019.5 in /  34520.3 hPa Calm   3.2 mph /  5.1 km/h 94 % 0.0 in /  0 mm
07:17 12.9 °F /  -10.6 °C 12.0 °F /  -11.1 °C 1019.5 in /  34520.3 hPa Calm   3.2 mph /  5.1 km/h 94 % 0.0 in /  0 mm
07:22 13.2 °F /  -10.4 °C 12.3 °F /  -10.9 °C 1019.5 in /  34520.3 hPa Calm   3.2 mph /  5.1 km/h 94 % 0.0 in /  0 mm
07:27 13.3 °F /  -10.4 °C 12.4 °F /  -10.9 °C 1019.5 in /  34520.3 hPa Calm     94 % 0.0 in /  0 mm
07:32 13.4 °F /  -10.3 °C 12.3 °F /  -10.9 °C 1019.9 in /  34533.8 hPa Calm     93 % 0.0 in /  0 mm
07:37 13.6 °F /  -10.2 °C 12.5 °F /  -10.8 °C 1019.5 in /  34520.3 hPa Calm     93 % 0.0 in /  0 mm
07:42 13.8 °F /  -10.1 °C 12.7 °F /  -10.7 °C 1019.5 in /  34520.3 hPa Calm     93 % 0.0 in /  0 mm
07:47 14.1 °F /  -9.9 °C 13.0 °F /  -10.6 °C 1019.5 in /  34520.3 hPa North 1.6 mph /  2.6 km/h   93 % 0.0 in /  0 mm
07:57 14.2 °F /  -9.9 °C 12.9 °F /  -10.6 °C 1019.5 in /  34520.3 hPa NNE 3.2 mph /  5.1 km/h 3.2 mph /  5.1 km/h 92 % 0.0 in /  0 mm
08:02 14.4 °F /  -9.8 °C 13.1 °F /  -10.5 °C 1019.5 in /  34520.3 hPa Calm   3.2 mph /  5.1 km/h 92 % 0.0 in /  0 mm
08:12 14.9 °F /  -9.5 °C 13.4 °F /  -10.3 °C 1019.5 in /  34520.3 hPa North 1.6 mph /  2.6 km/h 4.8 mph /  7.7 km/h 91 % 0.0 in /  0 mm
08:17 15.1 °F /  -9.4 °C 13.6 °F /  -10.2 °C 1019.9 in /  34533.8 hPa Calm   3.2 mph /  5.1 km/h 91 % 0.0 in /  0 mm
08:22 15.3 °F /  -9.3 °C 13.7 °F /  -10.2 °C 1019.9 in /  34533.8 hPa North 1.6 mph /  2.6 km/h 3.2 mph /  5.1 km/h 90 % 0.0 in /  0 mm
08:32 15.5 °F /  -9.2 °C 13.7 °F /  -10.2 °C 1019.5 in /  34520.3 hPa Calm   4.8 mph /  7.7 km/h 89 % 0.0 in /  0 mm
08:37 15.7 °F /  -9.1 °C 13.9 °F /  -10.1 °C 1019.5 in /  34520.3 hPa North 1.6 mph /  2.6 km/h 4.8 mph /  7.7 km/h 89 % 0.0 in /  0 mm
08:42 15.9 °F /  -8.9 °C 14.1 °F /  -9.9 °C 1019.5 in /  34520.3 hPa North 1.6 mph /  2.6 km/h 4.8 mph /  7.7 km/h 89 % 0.0 in /  0 mm
08:47 16.1 °F /  -8.8 °C 14.3 °F /  -9.8 °C 1019.9 in /  34533.8 hPa NNE 1.6 mph /  2.6 km/h 3.2 mph /  5.1 km/h 89 % 0.0 in /  0 mm
08:52 16.2 °F /  -8.8 °C 14.4 °F /  -9.8 °C 1019.9 in /  34533.8 hPa NNE 1.6 mph /  2.6 km/h 4.8 mph /  7.7 km/h 89 % 0.0 in /  0 mm
09:02 16.7 °F /  -8.5 °C 14.7 °F /  -9.6 °C 1019.5 in /  34520.3 hPa NNE 1.6 mph /  2.6 km/h 4.8 mph /  7.7 km/h 88 % 0.0 in /  0 mm
09:12 17.3 °F /  -8.2 °C 14.9 °F /  -9.5 °C 1019.9 in /  34533.8 hPa Calm   4.8 mph /  7.7 km/h 86 % 0.0 in /  0 mm
09:17 17.7 °F /  -7.9 °C 15.1 °F /  -9.4 °C 1019.9 in /  34533.8 hPa NNE 1.6 mph /  2.6 km/h 3.2 mph /  5.1 km/h 85 % 0.0 in /  0 mm
09:22 17.9 °F /  -7.8 °C 15.3 °F /  -9.3 °C 1019.5 in /  34520.3 hPa Calm   3.2 mph /  5.1 km/h 85 % 0.0 in /  0 mm
09:32 18.7 °F /  -7.4 °C 15.6 °F /  -9.1 °C 1019.5 in /  34520.3 hPa ENE 3.2 mph /  5.1 km/h 3.2 mph /  5.1 km/h 82 % 0.0 in /  0 mm
09:37 18.7 °F /  -7.4 °C 15.8 °F /  -9 °C 1019.5 in /  34520.3 hPa Calm   4.8 mph /  7.7 km/h 83 % 0.0 in /  0 mm
09:42 18.9 °F /  -7.3 °C 15.8 °F /  -9 °C 1019.5 in /  34520.3 hPa Calm   4.8 mph /  7.7 km/h 82 % 0.0 in /  0 mm
09:47 19.0 °F /  -7.2 °C 15.7 °F /  -9.1 °C 1019.5 in /  34520.3 hPa ENE 3.2 mph /  5.1 km/h 6.4 mph /  10.3 km/h 81 % 0.0 in /  0 mm
09:52 19.2 °F /  -7.1 °C 15.9 °F /  -8.9 °C 1019.5 in /  34520.3 hPa ENE 3.2 mph /  5.1 km/h 6.4 mph /  10.3 km/h 81 % 0.0 in /  0 mm
09:57 19.5 °F /  -6.9 °C 16.0 °F /  -8.9 °C 1019.5 in /  34520.3 hPa ENE 4.8 mph /  7.7 km/h 6.4 mph /  10.3 km/h 80 % 0.0 in /  0 mm
10:02 19.6 °F /  -6.9 °C 15.9 °F /  -8.9 °C 1019.5 in /  34520.3 hPa NE 3.2 mph /  5.1 km/h 6.4 mph /  10.3 km/h 79 % 0.0 in /  0 mm
10:12 20.3 °F /  -6.5 °C 16.3 °F /  -8.7 °C 1019.5 in /  34520.3 hPa ENE 1.6 mph /  2.6 km/h 8.0 mph /  12.9 km/h 78 % 0.0 in /  0 mm
10:17 20.3 °F /  -6.5 °C 16.1 °F /  -8.8 °C 1019.5 in /  34520.3 hPa Calm   8.0 mph /  12.9 km/h 77 % 0.0 in /  0 mm
10:22 20.8 °F /  -6.2 °C 16.2 °F /  -8.8 °C 1019.5 in /  34520.3 hPa East 6.4 mph /  10.3 km/h 11.3 mph /  18.2 km/h 75 % 0.0 in /  0 mm
10:27 21.0 °F /  -6.1 °C 16.4 °F /  -8.7 °C 1019.2 in /  34510.1 hPa ESE 1.6 mph /  2.6 km/h 11.3 mph /  18.2 km/h 75 % 0.0 in /  0 mm
10:32 21.3 °F /  -5.9 °C 16.5 °F /  -8.6 °C 1019.2 in /  34510.1 hPa ENE 1.6 mph /  2.6 km/h 11.3 mph /  18.2 km/h 74 % 0.0 in /  0 mm
10:37 21.4 °F /  -5.9 °C 16.4 °F /  -8.7 °C 1019.5 in /  34520.3 hPa ESE 4.8 mph /  7.7 km/h 11.3 mph /  18.2 km/h 73 % 0.0 in /  0 mm
10:42 21.3 °F /  -5.9 °C 16.5 °F /  -8.6 °C 1019.2 in /  34510.1 hPa ENE 4.8 mph /  7.7 km/h 11.3 mph /  18.2 km/h 74 % 0.0 in /  0 mm
10:47 21.6 °F /  -5.8 °C 16.8 °F /  -8.4 °C 1019.2 in /  34510.1 hPa ENE 4.8 mph /  7.7 km/h 12.9 mph /  20.8 km/h 74 % 0.0 in /  0 mm
10:57 22.1 °F /  -5.5 °C 16.8 °F /  -8.4 °C 1019.2 in /  34510.1 hPa NE 3.2 mph /  5.1 km/h 12.9 mph /  20.8 km/h 72 % 0.0 in /  0 mm
11:02 22.2 °F /  -5.4 °C 16.7 °F /  -8.5 °C 1019.2 in /  34510.1 hPa East 4.8 mph /  7.7 km/h 9.7 mph /  15.6 km/h 71 % 0.0 in /  0 mm
11:12 22.3 °F /  -5.4 °C 16.8 °F /  -8.4 °C 1019.2 in /  34510.1 hPa ESE 4.8 mph /  7.7 km/h 9.7 mph /  15.6 km/h 71 % 0.0 in /  0 mm
11:17 22.5 °F /  -5.3 °C 17.0 °F /  -8.3 °C 1019.2 in /  34510.1 hPa ENE 8.0 mph /  12.9 km/h 9.7 mph /  15.6 km/h 71 % 0.0 in /  0 mm
11:22 22.5 °F /  -5.3 °C 17.0 °F /  -8.3 °C 1019.2 in /  34510.1 hPa East 6.4 mph /  10.3 km/h 11.3 mph /  18.2 km/h 71 % 0.0 in /  0 mm
11:27 22.5 °F /  -5.3 °C 16.8 °F /  -8.4 °C 1019.2 in /  34510.1 hPa East 3.2 mph /  5.1 km/h 12.9 mph /  20.8 km/h 70 % 0.0 in /  0 mm
11:32 22.7 °F /  -5.2 °C 16.9 °F /  -8.4 °C 1019.2 in /  34510.1 hPa ENE 3.2 mph /  5.1 km/h 12.9 mph /  20.8 km/h 70 % 0.0 in /  0 mm
11:37 22.8 °F /  -5.1 °C 16.8 °F /  -8.4 °C 1018.8 in /  34496.6 hPa ESE 3.2 mph /  5.1 km/h 12.9 mph /  20.8 km/h 69 % 0.0 in /  0 mm
11:42 23.1 °F /  -4.9 °C 17.1 °F /  -8.3 °C 1018.8 in /  34496.6 hPa ENE 1.6 mph /  2.6 km/h 16.1 mph /  25.9 km/h 69 % 0.0 in /  0 mm
11:47 23.3 °F /  -4.8 °C 17.1 °F /  -8.3 °C 1018.8 in /  34496.6 hPa East 11.3 mph /  18.2 km/h 16.1 mph /  25.9 km/h 68 % 0.0 in /  0 mm
11:52 23.4 °F /  -4.8 °C 17.4 °F /  -8.1 °C 1018.8 in /  34496.6 hPa ENE 4.8 mph /  7.7 km/h 16.1 mph /  25.9 km/h 69 % 0.0 in /  0 mm
11:57 23.3 °F /  -4.8 °C 16.8 °F /  -8.4 °C 1018.8 in /  34496.6 hPa ENE 8.0 mph /  12.9 km/h 12.9 mph /  20.8 km/h 67 % 0.0 in /  0 mm
12:02 23.4 °F /  -4.8 °C 17.4 °F /  -8.1 °C 1018.8 in /  34496.6 hPa NE 11.3 mph /  18.2 km/h 12.9 mph /  20.8 km/h 69 % 0.0 in /  0 mm
12:12 24.1 °F /  -4.4 °C 17.6 °F /  -8 °C 1018.8 in /  34496.6 hPa SE 4.8 mph /  7.7 km/h 16.1 mph /  25.9 km/h 67 % 0.0 in /  0 mm
12:17 24.3 °F /  -4.3 °C 17.1 °F /  -8.3 °C 1018.8 in /  34496.6 hPa East 8.0 mph /  12.9 km/h 16.1 mph /  25.9 km/h 64 % 0.0 in /  0 mm
12:22 24.0 °F /  -4.4 °C 17.0 °F /  -8.3 °C 1018.8 in /  34496.6 hPa ENE 8.0 mph /  12.9 km/h 16.1 mph /  25.9 km/h 65 % 0.0 in /  0 mm
12:27 24.3 °F /  -4.3 °C 17.3 °F /  -8.2 °C 1018.5 in /  34486.4 hPa ESE 6.4 mph /  10.3 km/h 16.1 mph /  25.9 km/h 65 % 0.0 in /  0 mm
12:32 24.8 °F /  -4 °C 17.3 °F /  -8.2 °C 1018.5 in /  34486.4 hPa SE 1.6 mph /  2.6 km/h 16.1 mph /  25.9 km/h 63 % 0.0 in /  0 mm
12:37 24.7 °F /  -4.1 °C 16.9 °F /  -8.4 °C 1018.5 in /  34486.4 hPa ENE 3.2 mph /  5.1 km/h 16.1 mph /  25.9 km/h 62 % 0.0 in /  0 mm
12:42 25.1 °F /  -3.8 °C 17.6 °F /  -8 °C 1018.5 in /  34486.4 hPa SSE 6.4 mph /  10.3 km/h 17.7 mph /  28.5 km/h 63 % 0.0 in /  0 mm
12:47 25.2 °F /  -3.8 °C 16.9 °F /  -8.4 °C 1018.5 in /  34486.4 hPa SSE 3.2 mph /  5.1 km/h 17.7 mph /  28.5 km/h 60 % 0.0 in /  0 mm
12:52 25.4 °F /  -3.7 °C 17.1 °F /  -8.3 °C 1018.5 in /  34486.4 hPa SE 3.2 mph /  5.1 km/h 14.5 mph /  23.3 km/h 60 % 0.0 in /  0 mm
12:57 25.8 °F /  -3.4 °C 17.2 °F /  -8.2 °C 1018.5 in /  34486.4 hPa SSE 6.4 mph /  10.3 km/h 14.5 mph /  23.3 km/h 59 % 0.0 in /  0 mm
13:02 25.7 °F /  -3.5 °C 16.5 °F /  -8.6 °C 1018.5 in /  34486.4 hPa ENE 6.4 mph /  10.3 km/h 12.9 mph /  20.8 km/h 57 % 0.0 in /  0 mm
13:07 25.7 °F /  -3.5 °C 16.8 °F /  -8.4 °C 1018.2 in /  34476.3 hPa WSW 3.2 mph /  5.1 km/h 12.9 mph /  20.8 km/h 58 % 0.0 in /  0 mm
13:12 25.9 °F /  -3.4 °C 16.7 °F /  -8.5 °C 1018.2 in /  34476.3 hPa ESE 8.0 mph /  12.9 km/h 14.5 mph /  23.3 km/h 57 % 0.0 in /  0 mm
13:17 26.2 °F /  -3.2 °C 16.7 °F /  -8.5 °C 1018.2 in /  34476.3 hPa ESE 3.2 mph /  5.1 km/h 17.7 mph /  28.5 km/h 56 % 0.0 in /  0 mm
13:22 26.1 °F /  -3.3 °C 16.6 °F /  -8.6 °C 1018.2 in /  34476.3 hPa SSE 3.2 mph /  5.1 km/h 17.7 mph /  28.5 km/h 56 % 0.0 in /  0 mm
13:32 26.3 °F /  -3.2 °C 17.6 °F /  -8 °C 1017.8 in /  34462.7 hPa South 4.8 mph /  7.7 km/h 9.7 mph /  15.6 km/h 59 % 0.0 in /  0 mm
13:42 26.0 °F /  -3.3 °C 16.8 °F /  -8.4 °C 1017.8 in /  34462.7 hPa SE 1.6 mph /  2.6 km/h 11.3 mph /  18.2 km/h 57 % 0.0 in /  0 mm
13:47 26.2 °F /  -3.2 °C 17.0 °F /  -8.3 °C 1017.8 in /  34462.7 hPa ESE 4.8 mph /  7.7 km/h 9.7 mph /  15.6 km/h 57 % 0.0 in /  0 mm
13:52 26.2 °F /  -3.2 °C 17.3 °F /  -8.2 °C 1017.8 in /  34462.7 hPa ENE 8.0 mph /  12.9 km/h 12.9 mph /  20.8 km/h 58 % 0.0 in /  0 mm
13:57 26.4 °F /  -3.1 °C 16.9 °F /  -8.4 °C 1017.8 in /  34462.7 hPa SE 4.8 mph /  7.7 km/h 12.9 mph /  20.8 km/h 56 % 0.0 in /  0 mm
14:02 26.7 °F /  -2.9 °C 17.5 °F /  -8.1 °C 1017.5 in /  34452.6 hPa ESE 6.4 mph /  10.3 km/h 11.3 mph /  18.2 km/h 57 % 0.0 in /  0 mm
14:07 26.9 °F /  -2.8 °C 17.1 °F /  -8.3 °C 1017.5 in /  34452.6 hPa SW 1.6 mph /  2.6 km/h 11.3 mph /  18.2 km/h 55 % 0.0 in /  0 mm
14:12 26.9 °F /  -2.8 °C 17.7 °F /  -7.9 °C 1017.5 in /  34452.6 hPa South 3.2 mph /  5.1 km/h 14.5 mph /  23.3 km/h 57 % 0.0 in /  0 mm
14:17 27.0 °F /  -2.8 °C 18.0 °F /  -7.8 °C 1017.5 in /  34452.6 hPa SSW 3.2 mph /  5.1 km/h 14.5 mph /  23.3 km/h 58 % 0.0 in /  0 mm
14:22 26.9 °F /  -2.8 °C 17.4 °F /  -8.1 °C 1017.5 in /  34452.6 hPa SSE 3.2 mph /  5.1 km/h 14.5 mph /  23.3 km/h 56 % 0.0 in /  0 mm
14:32 26.8 °F /  -2.9 °C 16.7 °F /  -8.5 °C 1017.5 in /  34452.6 hPa SE 4.8 mph /  7.7 km/h 14.5 mph /  23.3 km/h 54 % 0.0 in /  0 mm
14:37 27.2 °F /  -2.7 °C 16.5 °F /  -8.6 °C 1017.5 in /  34452.6 hPa South 6.4 mph /  10.3 km/h 14.5 mph /  23.3 km/h 52 % 0.0 in /  0 mm
14:42 27.0 °F /  -2.8 °C 16.0 °F /  -8.9 °C 1017.5 in /  34452.6 hPa SW 4.8 mph /  7.7 km/h 11.3 mph /  18.2 km/h 51 % 0.0 in /  0 mm
14:52 27.6 °F /  -2.4 °C 16.9 °F /  -8.4 °C 1017.5 in /  34452.6 hPa SE 6.4 mph /  10.3 km/h 12.9 mph /  20.8 km/h 52 % 0.0 in /  0 mm
14:57 27.7 °F /  -2.4 °C 16.9 °F /  -8.4 °C 1017.2 in /  34442.4 hPa South 3.2 mph /  5.1 km/h 12.9 mph /  20.8 km/h 52 % 0.0 in /  0 mm
15:02 27.8 °F /  -2.3 °C 16.7 °F /  -8.5 °C 1017.2 in /  34442.4 hPa East 8.0 mph /  12.9 km/h 12.9 mph /  20.8 km/h 51 % 0.0 in /  0 mm
15:07 27.7 °F /  -2.4 °C 16.0 °F /  -8.9 °C 1017.2 in /  34442.4 hPa South 3.2 mph /  5.1 km/h 11.3 mph /  18.2 km/h 49 % 0.0 in /  0 mm
15:12 27.7 °F /  -2.4 °C 16.3 °F /  -8.7 °C 1017.2 in /  34442.4 hPa East 3.2 mph /  5.1 km/h 11.3 mph /  18.2 km/h 50 % 0.0 in /  0 mm
15:17 27.8 °F /  -2.3 °C 16.4 °F /  -8.7 °C 1017.2 in /  34442.4 hPa SSE 1.6 mph /  2.6 km/h 11.3 mph /  18.2 km/h 50 % 0.0 in /  0 mm
15:22 28.1 °F /  -2.2 °C 16.7 °F /  -8.5 °C 1017.2 in /  34442.4 hPa Calm   11.3 mph /  18.2 km/h 50 % 0.0 in /  0 mm
15:32 28.5 °F /  -1.9 °C 16.7 °F /  -8.5 °C 1016.8 in /  34428.8 hPa SE 1.6 mph /  2.6 km/h 8.0 mph /  12.9 km/h 49 % 0.0 in /  0 mm
15:37 28.5 °F /  -1.9 °C 17.1 °F /  -8.3 °C 1016.8 in /  34428.8 hPa East 6.4 mph /  10.3 km/h 8.0 mph /  12.9 km/h 50 % 0.0 in /  0 mm
15:42 28.7 °F /  -1.8 °C 16.9 °F /  -8.4 °C 1016.8 in /  34428.8 hPa South 3.2 mph /  5.1 km/h 8.0 mph /  12.9 km/h 49 % 0.0 in /  0 mm
15:47 28.6 °F /  -1.9 °C 16.2 °F /  -8.8 °C 1016.8 in /  34428.8 hPa East 6.4 mph /  10.3 km/h 8.0 mph /  12.9 km/h 47 % 0.0 in /  0 mm
15:52 28.4 °F /  -2 °C 16.7 °F /  -8.5 °C 1016.8 in /  34428.8 hPa SSE 3.2 mph /  5.1 km/h 11.3 mph /  18.2 km/h 49 % 0.0 in /  0 mm
15:57 28.5 °F /  -1.9 °C 16.4 °F /  -8.7 °C 1016.5 in /  34418.7 hPa SSE 4.8 mph /  7.7 km/h 11.3 mph /  18.2 km/h 48 % 0.0 in /  0 mm
16:02 28.3 °F /  -2.1 °C 16.2 °F /  -8.8 °C 1016.5 in /  34418.7 hPa SW 6.4 mph /  10.3 km/h 11.3 mph /  18.2 km/h 48 % 0.0 in /  0 mm
16:07 28.3 °F /  -2.1 °C 16.6 °F /  -8.6 °C 1016.5 in /  34418.7 hPa SSE 4.8 mph /  7.7 km/h 11.3 mph /  18.2 km/h 49 % 0.0 in /  0 mm
16:12 28.4 °F /  -2 °C 16.7 °F /  -8.5 °C 1016.5 in /  34418.7 hPa SSW 1.6 mph /  2.6 km/h 9.7 mph /  15.6 km/h 49 % 0.0 in /  0 mm
16:17 28.6 °F /  -1.9 °C 16.2 °F /  -8.8 °C 1016.5 in /  34418.7 hPa SSW 4.8 mph /  7.7 km/h 11.3 mph /  18.2 km/h 47 % 0.0 in /  0 mm
16:22 28.6 °F /  -1.9 °C 15.5 °F /  -9.2 °C 1016.5 in /  34418.7 hPa SW 8.0 mph /  12.9 km/h 11.3 mph /  18.2 km/h 45 % 0.0 in /  0 mm
16:32 28.2 °F /  -2.1 °C 15.1 °F /  -9.4 °C 1016.5 in /  34418.7 hPa Calm   16.1 mph /  25.9 km/h 45 % 0.0 in /  0 mm
16:37 28.4 °F /  -2 °C 15.3 °F /  -9.3 °C 1016.1 in /  34405.1 hPa WSW 4.8 mph /  7.7 km/h 16.1 mph /  25.9 km/h 45 % 0.0 in /  0 mm
16:42 28.7 °F /  -1.8 °C 15.6 °F /  -9.1 °C 1016.5 in /  34418.7 hPa South 6.4 mph /  10.3 km/h 11.3 mph /  18.2 km/h 45 % 0.0 in /  0 mm
16:47 28.6 °F /  -1.9 °C 15.2 °F /  -9.3 °C 1016.1 in /  34405.1 hPa West 1.6 mph /  2.6 km/h 14.5 mph /  23.3 km/h 44 % 0.0 in /  0 mm
16:52 28.7 °F /  -1.8 °C 15.6 °F /  -9.1 °C 1016.1 in /  34405.1 hPa SW 6.4 mph /  10.3 km/h 14.5 mph /  23.3 km/h 45 % 0.0 in /  0 mm
16:57 28.6 °F /  -1.9 °C 16.5 °F /  -8.6 °C 1016.1 in /  34405.1 hPa SW 6.4 mph /  10.3 km/h 14.5 mph /  23.3 km/h 48 % 0.0 in /  0 mm
17:02 28.8 °F /  -1.8 °C 17.0 °F /  -8.3 °C 1016.1 in /  34405.1 hPa ESE 3.2 mph /  5.1 km/h 12.9 mph /  20.8 km/h 49 % 0.0 in /  0 mm
17:07 29.1 °F /  -1.6 °C 15.6 °F /  -9.1 °C 1016.1 in /  34405.1 hPa East 1.6 mph /  2.6 km/h 16.1 mph /  25.9 km/h 44 % 0.0 in /  0 mm
17:12 29.4 °F /  -1.4 °C 15.5 °F /  -9.2 °C 1016.1 in /  34405.1 hPa SE 1.6 mph /  2.6 km/h 16.1 mph /  25.9 km/h 43 % 0.0 in /  0 mm
17:22 28.4 °F /  -2 °C 15.0 °F /  -9.4 °C 1016.1 in /  34405.1 hPa WSW 6.4 mph /  10.3 km/h 14.5 mph /  23.3 km/h 44 % 0.0 in /  0 mm
17:27 28.4 °F /  -2 °C 15.3 °F /  -9.3 °C 1016.1 in /  34405.1 hPa West 3.2 mph /  5.1 km/h 14.5 mph /  23.3 km/h 45 % 0.0 in /  0 mm
17:32 28.7 °F /  -1.8 °C 15.2 °F /  -9.3 °C 1016.1 in /  34405.1 hPa South 3.2 mph /  5.1 km/h 12.9 mph /  20.8 km/h 44 % 0.0 in /  0 mm
17:37 28.9 °F /  -1.7 °C 15.1 °F /  -9.4 °C 1015.8 in /  34395 hPa WSW 6.4 mph /  10.3 km/h 9.7 mph /  15.6 km/h 43 % 0.0 in /  0 mm
17:42 28.9 °F /  -1.7 °C 15.8 °F /  -9 °C 1016.1 in /  34405.1 hPa SW 6.4 mph /  10.3 km/h 9.7 mph /  15.6 km/h 45 % 0.0 in /  0 mm
17:47 29.0 °F /  -1.7 °C 16.2 °F /  -8.8 °C 1016.1 in /  34405.1 hPa SSW 3.2 mph /  5.1 km/h 14.5 mph /  23.3 km/h 46 % 0.0 in /  0 mm
17:52 29.2 °F /  -1.6 °C 15.3 °F /  -9.3 °C 1015.8 in /  34395 hPa Calm   14.5 mph /  23.3 km/h 43 % 0.0 in /  0 mm
18:17 29.6 °F /  -1.3 °C 15.7 °F /  -9.1 °C 1015.8 in /  34395 hPa Calm   9.7 mph /  15.6 km/h 43 % 0.0 in /  0 mm
18:22 29.8 °F /  -1.2 °C 16.6 °F /  -8.6 °C 1015.8 in /  34395 hPa South 1.6 mph /  2.6 km/h 9.7 mph /  15.6 km/h 45 % 0.0 in /  0 mm
18:27 29.9 °F /  -1.2 °C 15.6 °F /  -9.1 °C 1015.8 in /  34395 hPa South 4.8 mph /  7.7 km/h 9.7 mph /  15.6 km/h 42 % 0.0 in /  0 mm
18:32 29.9 °F /  -1.2 °C 16.0 °F /  -8.9 °C 1015.8 in /  34395 hPa SW 3.2 mph /  5.1 km/h 9.7 mph /  15.6 km/h 43 % 0.0 in /  0 mm
18:37 29.9 °F /  -1.2 °C 16.0 °F /  -8.9 °C 1015.8 in /  34395 hPa Calm   9.7 mph /  15.6 km/h 43 % 0.0 in /  0 mm
18:42 29.7 °F /  -1.3 °C 15.4 °F /  -9.2 °C 1015.8 in /  34395 hPa SW 1.6 mph /  2.6 km/h 9.7 mph /  15.6 km/h 42 % 0.0 in /  0 mm
18:52 29.4 °F /  -1.4 °C 15.1 °F /  -9.4 °C 1015.5 in /  34384.8 hPa SW 3.2 mph /  5.1 km/h 8.0 mph /  12.9 km/h 42 % 0.0 in /  0 mm
18:57 29.6 °F /  -1.3 °C 16.1 °F /  -8.8 °C 1015.5 in /  34384.8 hPa Calm   8.0 mph /  12.9 km/h 44 % 0.0 in /  0 mm
19:02 29.7 °F /  -1.3 °C 16.5 °F /  -8.6 °C 1015.8 in /  34395 hPa WSW 6.4 mph /  10.3 km/h 8.0 mph /  12.9 km/h 45 % 0.0 in /  0 mm
19:12 29.4 °F /  -1.4 °C 15.5 °F /  -9.2 °C 1015.5 in /  34384.8 hPa SW 3.2 mph /  5.1 km/h 8.0 mph /  12.9 km/h 43 % 0.0 in /  0 mm
19:17 29.2 °F /  -1.6 °C 15.3 °F /  -9.3 °C 1015.5 in /  34384.8 hPa WSW 1.6 mph /  2.6 km/h 8.0 mph /  12.9 km/h 43 % 0.0 in /  0 mm
19:22 29.3 °F /  -1.5 °C 16.1 °F /  -8.8 °C 1015.5 in /  34384.8 hPa Calm   8.0 mph /  12.9 km/h 45 % 0.0 in /  0 mm
19:27 29.4 °F /  -1.4 °C 15.1 °F /  -9.4 °C 1015.5 in /  34384.8 hPa West 3.2 mph /  5.1 km/h 8.0 mph /  12.9 km/h 42 % 0.0 in /  0 mm
19:32 29.3 °F /  -1.5 °C 15.1 °F /  -9.4 °C 1015.5 in /  34384.8 hPa WSW 4.8 mph /  7.7 km/h 4.8 mph /  7.7 km/h 42 % 0.0 in /  0 mm
19:42 29.2 °F /  -1.6 °C 15.7 °F /  -9.1 °C 1015.5 in /  34384.8 hPa Calm   4.8 mph /  7.7 km/h 44 % 0.0 in /  0 mm
19:47 29.3 °F /  -1.5 °C 15.1 °F /  -9.4 °C 1015.5 in /  34384.8 hPa Calm   4.8 mph /  7.7 km/h 42 % 0.0 in /  0 mm
19:52 29.4 °F /  -1.4 °C 15.5 °F /  -9.2 °C 1015.5 in /  34384.8 hPa WNW 1.6 mph /  2.6 km/h 3.2 mph /  5.1 km/h 43 % 0.0 in /  0 mm
19:57 29.4 °F /  -1.4 °C 15.1 °F /  -9.4 °C 1015.5 in /  34384.8 hPa Calm   3.2 mph /  5.1 km/h 42 % 0.0 in /  0 mm
20:02 29.3 °F /  -1.5 °C 15.4 °F /  -9.2 °C 1015.5 in /  34384.8 hPa Calm   3.2 mph /  5.1 km/h 43 % 0.0 in /  0 mm
20:07 29.5 °F /  -1.4 °C 14.9 °F /  -9.5 °C 1015.5 in /  34384.8 hPa Calm   3.2 mph /  5.1 km/h 41 % 0.0 in /  0 mm
20:12 29.3 °F /  -1.5 °C 15.4 °F /  -9.2 °C 1015.5 in /  34384.8 hPa Calm   3.2 mph /  5.1 km/h 43 % 0.0 in /  0 mm
20:17 28.8 °F /  -1.8 °C 15.3 °F /  -9.3 °C 1015.5 in /  34384.8 hPa Calm     44 % 0.0 in /  0 mm
20:22 28.4 °F /  -2 °C 15.7 °F /  -9.1 °C 1015.5 in /  34384.8 hPa Calm     46 % 0.0 in /  0 mm
20:32 27.7 °F /  -2.4 °C 15.7 °F /  -9.1 °C 1015.5 in /  34384.8 hPa Calm     48 % 0.0 in /  0 mm
20:37 27.3 °F /  -2.6 °C 16.0 °F /  -8.9 °C 1015.8 in /  34395 hPa Calm     50 % 0.0 in /  0 mm
20:42 26.9 °F /  -2.8 °C 16.2 °F /  -8.8 °C 1015.5 in /  34384.8 hPa Calm     52 % 0.0 in /  0 mm
20:47 26.2 °F /  -3.2 °C 15.6 °F /  -9.1 °C 1015.8 in /  34395 hPa Calm     52 % 0.0 in /  0 mm
20:52 25.9 °F /  -3.4 °C 15.3 °F /  -9.3 °C 1015.8 in /  34395 hPa Calm     52 % 0.0 in /  0 mm
20:57 25.7 °F /  -3.5 °C 15.7 °F /  -9.1 °C 1015.8 in /  34395 hPa Calm     54 % 0.0 in /  0 mm
21:02 25.6 °F /  -3.6 °C 15.6 °F /  -9.1 °C 1015.8 in /  34395 hPa Calm     54 % 0.0 in /  0 mm
21:12 25.1 °F /  -3.8 °C 16.0 °F /  -8.9 °C 1015.8 in /  34395 hPa Calm     57 % 0.0 in /  0 mm
21:17 24.9 °F /  -3.9 °C 16.1 °F /  -8.8 °C 1015.8 in /  34395 hPa Calm     58 % 0.0 in /  0 mm
21:22 24.4 °F /  -4.2 °C 16.1 °F /  -8.8 °C 1015.8 in /  34395 hPa Calm     60 % 0.0 in /  0 mm
21:32 24.1 °F /  -4.4 °C 16.4 °F /  -8.7 °C 1015.8 in /  34395 hPa Calm     62 % 0.0 in /  0 mm
21:37 23.8 °F /  -4.6 °C 16.6 °F /  -8.6 °C 1016.1 in /  34405.1 hPa Calm     64 % 0.0 in /  0 mm
21:42 23.4 °F /  -4.8 °C 16.4 °F /  -8.7 °C 1016.1 in /  34405.1 hPa Calm     65 % 0.0 in /  0 mm
21:52 22.8 °F /  -5.1 °C 16.4 °F /  -8.7 °C 1016.1 in /  34405.1 hPa Calm     67 % 0.0 in /  0 mm
21:57 22.7 °F /  -5.2 °C 16.3 °F /  -8.7 °C 1016.1 in /  34405.1 hPa Calm     67 % 0.0 in /  0 mm
22:02 22.4 °F /  -5.3 °C 16.4 °F /  -8.7 °C 1016.1 in /  34405.1 hPa Calm     69 % 0.0 in /  0 mm
22:12 21.7 °F /  -5.7 °C 16.2 °F /  -8.8 °C 1016.1 in /  34405.1 hPa Calm     71 % 0.0 in /  0 mm
22:17 21.6 °F /  -5.8 °C 16.1 °F /  -8.8 °C 1016.1 in /  34405.1 hPa Calm     71 % 0.0 in /  0 mm
22:22 21.8 °F /  -5.7 °C 16.1 °F /  -8.8 °C 1016.1 in /  34405.1 hPa Calm     70 % 0.0 in /  0 mm
22:27 21.9 °F /  -5.6 °C 16.0 °F /  -8.9 °C 1016.1 in /  34405.1 hPa Calm     69 % 0.0 in /  0 mm
22:32 22.0 °F /  -5.6 °C 16.0 °F /  -8.9 °C 1016.1 in /  34405.1 hPa Calm     69 % 0.0 in /  0 mm
22:37 21.8 °F /  -5.7 °C 16.1 °F /  -8.8 °C 1016.1 in /  34405.1 hPa Calm     70 % 0.0 in /  0 mm
22:42 21.5 °F /  -5.8 °C 16.0 °F /  -8.9 °C 1016.1 in /  34405.1 hPa Calm     71 % 0.0 in /  0 mm
22:52 21.2 °F /  -6 °C 15.7 °F /  -9.1 °C 1016.1 in /  34405.1 hPa Calm     71 % 0.0 in /  0 mm
22:57 21.1 °F /  -6.1 °C 15.6 °F /  -9.1 °C 1016.1 in /  34405.1 hPa Calm     71 % 0.0 in /  0 mm
23:02 21.2 °F /  -6 °C 15.9 °F /  -8.9 °C 1016.1 in /  34405.1 hPa Calm     72 % 0.0 in /  0 mm
23:07 20.8 °F /  -6.2 °C 15.8 °F /  -9 °C 1016.1 in /  34405.1 hPa Calm     73 % 0.0 in /  0 mm
23:12 20.9 °F /  -6.2 °C 15.9 °F /  -8.9 °C 1016.1 in /  34405.1 hPa Calm     73 % 0.0 in /  0 mm
23:17 20.9 °F /  -6.2 °C 15.9 °F /  -8.9 °C 1016.1 in /  34405.1 hPa Calm     73 % 0.0 in /  0 mm
23:22 20.7 °F /  -6.3 °C 15.7 °F /  -9.1 °C 1016.1 in /  34405.1 hPa Calm     73 % 0.0 in /  0 mm
23:32 20.7 °F /  -6.3 °C 15.7 °F /  -9.1 °C 1016.1 in /  34405.1 hPa Calm     73 % 0.0 in /  0 mm
23:37 20.7 °F /  -6.3 °C 15.7 °F /  -9.1 °C 1015.8 in /  34395 hPa Calm     73 % 0.0 in /  0 mm
23:42 20.6 °F /  -6.3 °C 15.8 °F /  -9 °C 1016.1 in /  34405.1 hPa Calm     74 % 0.0 in /  0 mm
23:47 20.3 °F /  -6.5 °C 15.5 °F /  -9.2 °C 1016.1 in /  34405.1 hPa Calm     74 % 0.0 in /  0 mm
23:52 20.1 °F /  -6.6 °C 15.5 °F /  -9.2 °C 1016.1 in /  34405.1 hPa Calm     75 % 0.0 in /  0 mm
23:57 20.1 °F /  -6.6 °C 15.5 °F /  -9.2 °C 1015.8 in /  34395 hPa Calm     75 % 0.0 in /  0 mm
Meteo18
Compliments of Weather Underground - 4 mb

Script developed by  Jim McMurry - jmcmurry@mwt.net Adapted for the template by  Wim van der Kuil - Leuven-Template.eu

You find our weather info also at:

European Weather Network

Weather Underground

Equipment we use:

Weather-station
Davis Vue

Weather-program
Meteobridge

Weather-server
Raspberry PI 2 B+

Provider
1 and 1

Davis Vue

Meteobridge

Raspberry PI 2 B+

1 and 1